Change the Weather History Date:

Sunday, August 11, 2013

  Actual Average Record
Temperature  
Mean Temperature 87 °F -  
Max Temperature 96 °F 89 °F 96 °F (2013)
Min Temperature 78 °F 76 °F 75 °F (2002)
Cooling Degree Days 22    
Growing Degree Days 37 (Base 50)    
Moisture  
Dew Point 77 °F    
Average Humidity 85    
Maximum Humidity 94    
Minimum Humidity 53    
Precipitation  
Precipitation 0.16 in 0.29 in - ()
Sea Level Pressure  
Sea Level Pressure 29.93 in    
Wind  
Wind Speed 5 mph ()    
Max Wind Speed 15 mph    
Max Gust Speed -    
Visibility 6.9 miles    
Events Rain , Thunderstorm    
Averages and records for this station are not official NWS values.
T = Trace of Precipitation, MM = Missing Value Source: Averaged Metar Reports

Daily Weather History Graph

Daily Weather History Graph

Search for Another Location

Airport or City:

Trip Planner

Search our weather history database for the weather conditions in past years. The results will help you decide how hot, cold, wet, or windy it might be!

Date:

Astronomy

Aug. 11, 2013 Rise Set
Actual Time 5:35 AM CST 6:21 PM CST
Civil Twilight 5:12 AM CST 6:43 PM CST
Nautical Twilight 4:45 AM CST 7:10 PM CST
Astronomical Twilight 4:18 AM CST 7:37 PM CST
Moon 9:31 AM CST (8/11) 9:31 PM CST (8/11)
Length of Visible Light 13h 31m
Length of Day
12h 46m
Waxing Crescent, 22% of the Moon is Illuminated
Aug 11
Waxing Crescent
Aug 14
First Quarter
Aug 20
Full
Aug 28
Last Quarter
Sep 5
New

Hourly Weather History & Observations

Time (CST) Temp. Heat Index Dew Point Humidity Pressure Visibility Wind Dir Wind Speed Gust Speed Precip Events Conditions
12:00 AM 82 °F - 76 °F 78% 29.94 in 12 mi East 4.6 mph - -   Scattered Clouds
3:00 AM 82 °F - 77 °F 81% 29.90 in 12 mi East 5.8 mph - -  
5:00 AM 82.4 °F 90.9 °F 77.0 °F 84% 29.92 in 5.6 mi East 5.8 mph - N/A Thunderstorm Thunderstorm
6:00 AM 82.4 °F 90.9 °F 77.0 °F 84% 29.92 in 6.2 mi East 4.6 mph - N/A   Mostly Cloudy
6:26 AM 82.4 °F 90.9 °F 77.0 °F 84% 29.93 in 6.2 mi East 5.8 mph - N/A Thunderstorm Thunderstorm
7:00 AM 82.4 °F 90.9 °F 77.0 °F 84% 29.94 in 6.2 mi Calm Calm - N/A Thunderstorm Thunderstorm
8:00 AM 82.4 °F 90.9 °F 77.0 °F 84% 29.96 in 5.6 mi East 6.9 mph - N/A Thunderstorm Thunderstorm
8:23 AM 82.4 °F 90.9 °F 77.0 °F 84% 29.96 in 1.9 mi ENE 15.0 mph - N/A Rain , Thunderstorm Thunderstorms and Rain
8:32 AM 82.4 °F 90.9 °F 77.0 °F 84% 29.96 in 5.0 mi NE 10.4 mph - N/A Thunderstorm Thunderstorm
9:00 AM 79 °F - 76 °F 87% 29.96 in 11 mi ENE 4.6 mph - - Thunderstorm Thunderstorm
9:00 AM 78.8 °F - 75.2 °F 89% 29.95 in 6.2 mi ENE 4.6 mph - N/A Thunderstorm Thunderstorm
9:15 AM 78.8 °F - 75.2 °F 89% 29.96 in 6.2 mi ENE 8.1 mph - N/A   Mostly Cloudy
10:00 AM 82.4 °F 90.9 °F 77.0 °F 84% 29.96 in 6.2 mi East 6.9 mph - N/A Thunderstorm Thunderstorm
11:00 AM 84.2 °F 94.1 °F 77.0 °F 79% 29.95 in 6.2 mi East 9.2 mph - N/A Thunderstorm Thunderstorm
12:00 PM 84 °F - 78 °F 76% 29.95 in 11 mi East 6.9 mph - - Thunderstorm Thunderstorm
12:00 PM 84.2 °F 94.1 °F 77.0 °F 79% 29.95 in 6.2 mi East 6.9 mph - N/A Thunderstorm Thunderstorm
1:00 PM 84.2 °F 94.1 °F 77.0 °F 79% 29.93 in 3.1 mi East 6.9 mph - N/A Thunderstorm Thunderstorm
1:40 PM 84.2 °F 94.1 °F 77.0 °F 79% 29.92 in 3.1 mi East 6.9 mph - N/A Rain , Thunderstorm Thunderstorms and Rain
2:00 PM 78.8 °F - 77.0 °F 94% 29.91 in 5.0 mi North - - N/A Rain , Thunderstorm Light Thunderstorms and Rain
2:23 PM 78.8 °F - 77.0 °F 94% 29.91 in 6.2 mi East 3.5 mph - N/A   Mostly Cloudy
3:00 PM 79 °F - 77 °F 92% 29.91 in 11 mi Calm Calm - -   Scattered Clouds
3:00 PM 96.8 °F 112.2 °F 77.0 °F 53% 29.90 in 6.2 mi Calm Calm - N/A   Mostly Cloudy
3:45 PM 78.8 °F - 77.0 °F 94% 29.90 in 5.0 mi NNE 3.5 mph - N/A Thunderstorm Thunderstorm
3:49 PM 78.8 °F - 77.0 °F 94% 29.90 in 5.0 mi NNE 3.5 mph - N/A Thunderstorm Thunderstorm
4:00 PM 80.6 °F 87.1 °F 77.0 °F 89% 29.90 in 5.0 mi East 4.6 mph - N/A Thunderstorm Thunderstorm
4:48 PM 80.6 °F 87.1 °F 77.0 °F 89% 29.88 in 6.2 mi NNE 3.5 mph - N/A   Mostly Cloudy
5:00 PM 80.6 °F 88.1 °F 78.8 °F 94% 29.88 in 6.2 mi NNE 4.6 mph - N/A   Mostly Cloudy
6:00 PM 81 °F - 78 °F 90% 29.90 in 12 mi NE 4.6 mph - -  
6:00 PM 80.6 °F 88.1 °F 78.8 °F 94% 29.89 in 6.2 mi NE 4.6 mph - N/A   Mostly Cloudy
9:00 PM 80 °F - 78 °F 93% 29.96 in 12 mi Calm Calm - - Thunderstorm Thunderstorm